Location: Miami, Florida
(25.6830°N, 80.1700°W)
Time: 15:07:50
(UTC-04:00)

ISS - Pass Details

Date: 29 June 2018
Orbit: 402 x 408 km, 51.6° (Epoch: 24 October)

Event Time Altitude Azimuth Distance (km) Brightness Sun altitude
Exits shadow 04:45:16 21° 133° (SE) 978 -1.9 -21.0°
Maximum altitude 04:45:30 21° 126° (SE) 973 -1.8 -21.0°
Drops below altitude 10° 04:48:07 10° 74° (ENE) 1,482 0.0 -20.5°
Enters shadow 05:42:12 -74° 222° (SW) 12,651 3.7 -10.7°
